KD8ILV Weather Reports


Display with metric or nautical units.
time (UTC)temp
F
wind
direction
speed
MPH
gust
MPH
rain 1hr
in
rain 24hr
in
rain mn
in
humidity
%
barometer
mb
20191016165042 47 280 3.0 5.0 0.00 0.00 0.00 78 1011.2
20191016164542 47 302 3.0 4.0 0.00 0.00 0.00 78 1011.2
20191016164042 47 263 3.0 4.0 0.00 0.00 0.00 79 1011.3
20191016163542 47 274 2.0 7.0 0.00 0.00 0.00 79 1011.3
20191016163042 47 278 4.0 7.0 0.00 0.00 0.00 79 1011.3
20191016162542 47 264 2.0 6.0 0.00 0.00 0.00 80 1011.3
20191016162042 47 281 2.0 7.0 0.00 0.00 0.00 80 1011.2
20191016161542 46 284 2.0 7.0 0.00 0.00 0.00 79 1011.3
20191016161042 46 268 6.0 6.0 0.00 0.00 0.00 80 1011.2
20191016160542 46 260 2.0 10.0 0.00 0.00 0.00 80 1011.1
20191016160112 46 255 4.0 10.0 0.00 0.00 0.00 80 1011.0
20191016155542 46 264 5.0 10.0 0.00 0.00 0.00 80 1010.9
20191016155043 46 304 1.0 10.0 0.00 0.00 0.00 79 1010.8
20191016154542 46 278 4.0 15.0 0.00 0.00 0.00 79 1010.8
20191016154042 46 269 5.0 15.0 0.00 0.00 0.00 80 1010.7
20191016153542 46 311 4.0 6.0 0.00 0.00 0.00 81 1010.7
20191016153042 46 309 2.0 6.0 0.00 0.00 0.00 81 1010.5
20191016152542 46 314 6.0 6.0 0.00 0.00 0.00 81 1010.5
20191016152042 46 268 1.0 6.0 0.00 0.00 0.00 81 1010.4
20191016151542 46 295 3.0 6.0 0.00 0.00 0.00 82 1010.3
20191016151042 46 319 3.0 6.0 0.00 0.00 0.00 82 1010.3
20191016150542 46 268 3.0 5.0 0.00 0.00 0.00 82 1010.3
20191016150042 46 295 3.0 7.0 0.00 0.00 0.00 84 1010.3
20191016145542 45 302 3.0 7.0 0.00 0.00 0.00 83 1010.0
20191016145042 45 309 3.0 8.0 0.00 0.00 0.00 83 1010.0
20191016144542 45 273 3.0 8.0 0.00 0.00 0.00 84 1010.0
20191016144042 45 270 2.0 10.0 0.00 0.00 0.00 84 1010.0
20191016143542 45 277 4.0 10.0 0.00 0.00 0.00 85 1009.9
20191016143042 45 259 3.0 8.0 0.00 0.00 0.00 87 1009.9
20191016142542 45 264 3.0 8.0 0.00 0.00 0.00 87 1009.9
20191016142042 45 295 3.0 6.0 0.00 0.00 0.00 87 1009.9
20191016141542 45 259 1.0 7.0 0.00 0.00 0.00 87 1009.8
20191016141042 45 270 3.0 8.0 0.00 0.00 0.00 87 1009.7
20191016140542 45 274 3.0 9.0 0.00 0.00 0.00 87 1009.6
20191016140112 45 288 4.0 9.0 0.00 0.00 0.00 87 1009.5
20191016135542 45 260 3.0 8.0 0.00 0.00 0.00 88 1009.5
20191016135042 45 263 3.0 8.0 0.00 0.00 0.00 88 1009.4
20191016134542 45 283 1.0 8.0 0.00 0.00 0.00 88 1009.4
20191016134042 45 242 4.0 8.0 0.00 0.00 0.00 90 1009.4
20191016133542 45 253 2.0 6.0 0.00 0.00 0.00 90 1009.2
20191016133042 45 336 4.0 6.0 0.00 0.00 0.00 89 1009.1
20191016132542 45 288 1.0 6.0 0.00 0.00 0.00 89 1008.9
20191016132042 45 297 2.0 6.0 0.00 0.00 0.00 90 1008.7
20191016131542 45 288 2.0 8.0 0.00 0.00 0.00 90 1008.6
20191016131042 45 263 3.0 8.0 0.00 0.00 0.00 90 1008.5
20191016130542 45 280 2.0 6.0 0.00 0.00 0.00 91 1008.5
20191016130042 45 250 3.0 4.0 0.00 0.00 0.00 92 1008.4
20191016125542 45 252 3.0 4.0 0.00 0.00 0.00 92 1008.3
20191016125042 45 287 1.0 4.0 0.00 0.00 0.00 93 1008.2
20191016124542 45 266 2.0 3.0 0.00 0.00 0.00 93 1008.2
20191016124042 68 186 3.0 3.0 0.00 0.00 0.00 72 1008.9
20191016123542 68 186 3.0 3.0 0.00 0.00 0.00 72 1008.9
20191016123042 68 186 3.0 3.0 0.00 0.00 0.00 72 1008.8
20191016122542 68 186 3.0 3.0 0.00 0.00 0.00 72 1008.7
20191016122042 68 186 3.0 3.0 0.00 0.00 0.00 72 1008.6
20191016121542 68 186 3.0 3.0 0.00 0.00 0.00 72 1008.6
20191016121042 68 186 3.0 3.0 0.00 0.00 0.00 72 1008.6
20191016120542 68 186 3.0 3.0 0.00 0.00 0.00 72 1008.6
20191016120042 68 186 3.0 3.0 0.00 0.00 0.00 72 1008.6
20191016115542 68 186 3.0 3.0 0.00 0.00 0.00 72 1008.6
20191016115042 68 186 3.0 3.0 0.00 0.00 0.00 72 1008.4
20191016114542 68 186 3.0 3.0 0.00 0.00 0.00 72 1008.4
20191016114042 68 186 3.0 3.0 0.00 0.00 0.00 72 1008.4
20191016113543 68 186 3.0 3.0 0.00 0.00 0.00 72 1008.4
20191016113042 68 186 3.0 3.0 0.00 0.00 0.00 72 1008.2
20191016112542 68 186 3.0 3.0 0.00 0.00 0.00 72 1008.3
20191016112042 68 186 3.0 3.0 0.00 0.00 0.00 72 1008.2
20191016111542 68 186 3.0 3.0 0.00 0.00 0.00 72 1008.1
20191016111042 68 186 3.0 3.0 0.00 0.00 0.00 72 1008.0
20191016110542 68 186 3.0 3.0 0.00 0.00 0.00 72 1007.9
20191016110042 68 186 3.0 3.0 0.00 0.00 0.00 72 1007.9
20191016105542 68 186 3.0 3.0 0.00 0.00 0.00 72 1007.9
20191016105042 68 186 3.0 3.0 0.00 0.00 0.00 72 1007.8
20191016104542 68 186 3.0 3.0 0.00 0.00 0.00 72 1007.9
20191016104042 68 186 3.0 3.0 0.00 0.00 0.00 72 1008.0
20191016103542 68 186 3.0 3.0 0.00 0.00 0.00 72 1007.9
20191016103042 68 186 3.0 3.0 0.00 0.00 0.00 72 1008.3
20191016102542 68 186 3.0 3.0 0.00 0.00 0.00 72 1008.1
20191016102043 68 186 3.0 3.0 0.00 0.00 0.00 72 1007.9
20191016101542 68 186 3.0 3.0 0.00 0.00 0.00 72 1007.5
20191016101044 68 186 3.0 3.0 0.00 0.00 0.00 72 1007.6
20191016100542 68 186 3.0 3.0 0.00 0.00 0.00 72 1007.5
20191016100042 68 186 3.0 3.0 0.00 0.00 0.00 72 1007.7
20191016095542 68 186 3.0 3.0 0.00 0.00 0.00 72 1007.7
20191016095042 68 186 3.0 3.0 0.00 0.00 0.00 72 1007.8
20191016094542 68 186 3.0 3.0 0.00 0.00 0.00 72 1007.8
20191016094042 68 186 3.0 3.0 0.00 0.00 0.00 72 1008.7
20191016093542 68 186 3.0 3.0 0.00 0.00 0.00 72 1007.8
20191016093042 68 186 3.0 3.0 0.00 0.00 0.00 72 1007.9
20191016092542 68 186 3.0 3.0 0.00 0.00 0.00 72 1007.7
20191016092042 68 186 3.0 3.0 0.00 0.00 0.00 72 1007.5
20191016091542 68 186 3.0 3.0 0.00 0.00 0.00 72 1007.2
20191016091042 68 186 3.0 3.0 0.00 0.00 0.00 72 1007.4
20191016090542 68 186 3.0 3.0 0.00 0.00 0.00 72 1007.6
20191016090042 68 186 3.0 3.0 0.00 0.00 0.00 72 1007.7
20191016085542 68 186 3.0 3.0 0.00 0.00 0.00 72 1007.5
20191016085042 68 186 3.0 3.0 0.00 0.00 0.00 72 1007.6
20191016084542 68 186 3.0 3.0 0.00 0.00 0.00 72 1007.6
20191016084042 68 186 3.0 3.0 0.00 0.00 0.00 72 1007.7
20191016083542 68 186 3.0 3.0 0.00 0.00 0.00 72 1007.6
20191016083043 68 186 3.0 3.0 0.00 0.00 0.00 72 1007.7
20191016082542 68 186 3.0 3.0 0.00 0.00 0.00 72 1007.5
20191016082042 68 186 3.0 3.0 0.00 0.00 0.00 72 1007.4
20191016081542 68 186 3.0 3.0 0.00 0.00 0.00 72 1007.2
20191016081042 68 186 3.0 3.0 0.00 0.00 0.00 72 1007.2
20191016080542 68 186 3.0 3.0 0.00 0.00 0.00 72 1007.1
20191016080042 68 186 3.0 3.0 0.00 0.00 0.00 72 1007.1
20191016075543 68 186 3.0 3.0 0.00 0.00 0.00 72 1007.1
20191016075042 68 186 3.0 3.0 0.00 0.00 0.00 72 1007.0
20191016074542 68 186 3.0 3.0 0.00 0.00 0.00 72 1006.6
20191016074042 68 186 3.0 3.0 0.00 0.00 0.00 72 1006.0
20191016073542 68 186 3.0 3.0 0.00 0.00 0.00 72 1005.9
20191016073042 68 186 3.0 3.0 0.00 0.00 0.00 72 1006.1
20191016072542 68 186 3.0 3.0 0.00 0.00 0.00 72 1006.1
20191016072042 68 186 3.0 3.0 0.00 0.00 0.00 72 1006.3
20191016071542 68 186 3.0 3.0 0.00 0.00 0.00 72 1006.4
20191016071042 68 186 3.0 3.0 0.00 0.00 0.00 72 1006.3
20191016070542 68 186 3.0 3.0 0.00 0.00 0.00 72 1006.4
20191016070042 68 186 3.0 3.0 0.00 0.00 0.00 72 1006.5
20191016065542 68 186 3.0 3.0 0.00 0.00 0.00 72 1006.6
20191016065042 68 186 3.0 3.0 0.00 0.00 0.00 72 1006.5
20191016064542 68 186 3.0 3.0 0.00 0.00 0.00 72 1006.5
20191016064042 68 186 3.0 3.0 0.00 0.00 0.00 72 1006.7
20191016063542 68 186 3.0 3.0 0.00 0.00 0.00 72 1006.9
20191016063042 68 186 3.0 3.0 0.00 0.00 0.00 72 1007.0
20191016062542 68 186 3.0 3.0 0.00 0.00 0.00 72 1007.1
20191016062043 68 186 3.0 3.0 0.00 0.00 0.00 72 1007.2
20191016061542 68 186 3.0 3.0 0.00 0.00 0.00 72 1007.2
20191016061042 68 186 3.0 3.0 0.00 0.00 0.00 72 1007.3
20191016060542 68 186 3.0 3.0 0.00 0.00 0.00 72 1007.4
20191016060042 68 186 3.0 3.0 0.00 0.00 0.00 72 1007.6
20191016055612 68 186 3.0 3.0 0.00 0.00 0.00 72 1007.1
20191016055042 68 186 3.0 3.0 0.00 0.00 0.00 72 1007.4
20191016054542 68 186 3.0 3.0 0.00 0.00 0.00 72 1007.8
20191016054042 68 186 3.0 3.0 0.00 0.00 0.00 72 1007.8
20191016053542 68 186 3.0 3.0 0.00 0.00 0.00 72 1007.9
20191016053042 68 186 3.0 3.0 0.00 0.00 0.00 72 1007.7
20191016052542 68 186 3.0 3.0 0.00 0.00 0.00 72 1007.8
20191016052042 68 186 3.0 3.0 0.00 0.00 0.00 72 1008.0
20191016051542 68 186 3.0 3.0 0.00 0.00 0.00 72 1008.3
20191016051042 68 186 3.0 3.0 0.00 0.00 0.00 72 1008.1
20191016050542 68 186 3.0 3.0 0.00 0.00 0.00 72 1008.1
20191016050042 68 186 3.0 3.0 0.00 0.00 0.00 72 1007.9
20191016045542 68 186 3.0 3.0 0.00 0.00 0.00 72 1007.8
20191016045042 68 186 3.0 3.0 0.00 0.00 0.00 72 1007.8
20191016044542 68 186 3.0 3.0 0.00 0.00 0.00 72 1007.7
20191016044042 68 186 3.0 3.0 0.00 0.00 0.00 72 1007.2
20191016043542 68 186 3.0 3.0 0.00 0.00 0.00 72 1007.2
20191016043042 68 186 3.0 3.0 0.00 0.00 0.00 72 1007.3
20191016042542 68 186 3.0 3.0 0.00 0.00 0.00 72 1007.3
20191016042042 68 186 3.0 3.0 0.00 0.00 0.00 72 1007.7
20191016041542 68 186 3.0 3.0 0.00 0.00 0.00 72 1007.9
20191016041042 68 186 3.0 3.0 0.00 0.00 0.00 72 1008.2
20191016040542 68 186 3.0 3.0 0.00 0.00 0.00 72 1008.4
20191016040112 68 186 3.0 3.0 0.00 0.00 0.00 72 1008.5
20191016035542 68 186 3.0 3.0 0.00 0.00 0.00 72 1008.3
20191016035042 68 186 3.0 3.0 0.00 0.00 0.00 72 1008.6
20191016034542 68 186 3.0 3.0 0.00 0.00 0.00 72 1008.1
20191016034042 68 186 3.0 3.0 0.00 0.00 0.00 72 1008.3
20191016033542 68 186 3.0 3.0 0.00 0.00 0.00 72 1008.4
20191016033042 68 186 3.0 3.0 0.00 0.00 0.00 72 1008.3
20191016032542 68 186 3.0 3.0 0.00 0.00 0.00 72 1008.3
20191016032042 68 186 3.0 3.0 0.00 0.00 0.00 72 1008.2
20191016031542 68 186 3.0 3.0 0.00 0.00 0.00 72 1008.3
20191016031043 68 186 3.0 3.0 0.00 0.00 0.00 72 1008.5
20191016030542 68 186 3.0 3.0 0.00 0.00 0.00 72 1008.3
20191016030112 68 186 3.0 3.0 0.00 0.00 0.00 72 1008.3
20191016025542 68 186 3.0 3.0 0.00 0.00 0.00 72 1008.3
20191016025042 68 186 3.0 3.0 0.00 0.00 0.00 72 1008.4
20191016024542 68 186 3.0 3.0 0.00 0.00 0.00 72 1008.4
20191016024112 68 186 3.0 3.0 0.00 0.00 0.00 72 1008.6
20191016023542 68 186 3.0 3.0 0.00 0.00 0.00 72 1008.6
20191016023042 68 186 3.0 3.0 0.00 0.00 0.00 72 1008.6
20191016022542 68 186 3.0 3.0 0.00 0.00 0.00 72 1008.7
20191016022112 68 186 3.0 3.0 0.00 0.00 0.00 72 1008.8
20191016021542 68 186 3.0 3.0 0.00 0.00 0.00 72 1008.6
20191016021042 68 186 3.0 3.0 0.00 0.00 0.00 72 1008.7
20191016020542 68 186 3.0 3.0 0.00 0.00 0.00 72 1008.9
20191016020042 68 186 3.0 3.0 0.00 0.00 0.00 72 1008.9
20191016015542 68 186 3.0 3.0 0.00 0.00 0.00 72 1008.7
20191016015042 68 186 3.0 3.0 0.00 0.00 0.00 72 1008.8
20191016014542 68 186 3.0 3.0 0.00 0.00 0.00 72 1008.7
20191016014042 68 186 3.0 3.0 0.00 0.00 0.00 72 1008.8
20191016013542 68 186 3.0 3.0 0.00 0.00 0.00 72 1008.9
20191016013042 68 186 3.0 3.0 0.00 0.00 0.00 72 1008.9
20191016012542 68 186 3.0 3.0 0.00 0.00 0.00 72 1008.9
20191016012043 68 186 3.0 3.0 0.00 0.00 0.00 72 1008.9
20191016011542 68 186 3.0 3.0 0.00 0.00 0.00 72 1008.9
20191016011042 68 186 3.0 3.0 0.00 0.00 0.00 72 1009.1
20191016010542 68 186 3.0 6.0 0.00 0.00 0.00 72 1009.2
20191016010042 68 186 3.0 9.0 0.00 0.00 0.00 72 1009.3
20191016005542 68 210 4.0 9.0 0.00 0.00 0.00 73 1009.1
20191016005042 68 170 3.0 9.0 0.00 0.00 0.00 73 1009.1
20191016004542 68 157 4.0 9.0 0.00 0.00 0.00 73 1009.0
20191016004042 68 226 2.0 10.0 0.00 0.00 0.00 72 1009.3
20191016003542 68 211 1.0 10.0 0.00 0.00 0.00 72 1009.5
20191016003042 68 124 3.0 6.0 0.00 0.00 0.00 72 1009.5
20191016002542 68 112 2.0 6.0 0.00 0.00 0.00 71 1009.6
20191016002042 69 340 1.0 6.0 0.00 0.00 0.00 71 1009.6
20191016001542 69 165 5.0 8.0 0.00 0.00 0.00 71 1009.5
20191016001042 69 212 3.0 8.0 0.00 0.00 0.00 70 1009.4
20191016000542 69 188 2.0 10.0 0.00 0.00 0.00 70 1009.6
20191016000042 69 226 3.0 14.0 0.00 0.00 0.00 70 1009.7
20191015235542 69 181 8.0 14.0 0.00 0.00 0.00 69 1009.9
20191015235042 69 212 8.0 14.0 0.00 0.00 0.00 70 1010.0
20191015234542 68 159 0.0 8.0 0.00 0.00 0.00 69 1010.0
20191015234042 68 158 1.0 6.0 0.00 0.00 0.00 69 1010.0
20191015233542 69 212 5.0 5.0 0.00 0.00 0.00 68 1010.0
20191015233042 68 203 3.0 5.0 0.00 0.00 0.00 68 1009.9
20191015232542 69 156 0.0 3.0 0.00 0.00 0.00 67 1010.0
20191015232042 69 158 0.0 6.0 0.00 0.00 0.00 67 1009.9
20191015231542 69 194 3.0 6.0 0.00 0.00 0.00 66 1009.8
20191015231042 69 172 0.0 5.0 0.00 0.00 0.00 66 1009.8
20191015230542 70 160 2.0 5.0 0.00 0.00 0.00 65 1009.8
20191015230042 70 159 0.0 5.0 0.00 0.00 0.00 65 1009.9
20191015225542 70 165 5.0 7.0 0.00 0.00 0.00 64 1009.9
20191015225042 70 143 0.0 7.0 0.00 0.00 0.00 64 1010.0
20191015224542 71 148 0.0 5.0 0.00 0.00 0.00 63 1010.0
20191015224042 71 135 2.0 8.0 0.00 0.00 0.00 63 1010.1
20191015223542 71 167 2.0 8.0 0.00 0.00 0.00 62 1010.1
20191015223042 71 207 4.0 6.0 0.00 0.00 0.00 62 1010.1
20191015222542 71 211 3.0 9.0 0.00 0.00 0.00 62 1010.1
20191015222042 72 208 3.0 11.0 0.00 0.00 0.00 61 1010.3
20191015221542 72 173 4.0 11.0 0.00 0.00 0.00 60 1010.4
20191015221042 72 174 1.0 11.0 0.00 0.00 0.00 59 1010.4
20191015220542 72 281 1.0 12.0 0.00 0.00 0.00 59 1010.5
20191015220112 73 183 4.0 12.0 0.00 0.00 0.00 58 1010.5
20191015215542 73 165 2.0 3.0 0.00 0.00 0.00 58 1010.6
20191015215042 73 351 0.0 5.0 0.00 0.00 0.00 58 1010.5
20191015214542 73 243 1.0 12.0 0.00 0.00 0.00 58 1010.5
20191015214042 73 228 0.0 12.0 0.00 0.00 0.00 58 1010.4
20191015213542 73 155 4.0 8.0 0.00 0.00 0.00 57 1010.5
20191015213042 73 221 0.0 8.0 0.00 0.00 0.00 58 1010.5
20191015212542 73 163 2.0 13.0 0.00 0.00 0.00 57 1010.5
20191015212042 73 183 7.0 13.0 0.00 0.00 0.00 57 1010.6
20191015211542 73 195 4.0 9.0 0.00 0.00 0.00 56 1010.6
20191015211042 73 153 0.0 10.0 0.00 0.00 0.00 56 1010.6
20191015210542 73 158 1.0 10.0 0.00 0.00 0.00 55 1010.6
20191015210042 74 195 0.0 6.0 0.00 0.00 0.00 55 1010.7
20191015205542 74 138 0.0 6.0 0.00 0.00 0.00 54 1010.7
20191015205042 74 162 2.0 6.0 0.00 0.00 0.00 54 1010.8
20191015204542 74 263 0.0 14.0 0.00 0.00 0.00 55 1010.9
20191015204042 73 188 1.0 14.0 0.00 0.00 0.00 54 1010.8
20191015203542 74 188 10.0 12.0 0.00 0.00 0.00 54 1011.1
20191015203042 74 159 9.0 12.0 0.00 0.00 0.00 54 1011.1
20191015202543 74 163 4.0 8.0 0.00 0.00 0.00 53 1011.2
20191015202042 74 242 1.0 15.0 0.00 0.00 0.00 53 1011.3
20191015201542 74 214 3.0 15.0 0.00 0.00 0.00 53 1011.3
20191015201042 74 141 8.0 10.0 0.00 0.00 0.00 53 1011.3
20191015200542 74 138 2.0 10.0 0.00 0.00 0.00 52 1011.1
20191015200112 74 146 5.0 11.0 0.00 0.00 0.00 52 1011.1
20191015195542 75 152 6.0 11.0 0.00 0.00 0.00 51 1011.2
20191015195042 75 141 2.0 6.0 0.00 0.00 0.00 50 1011.3
20191015194543 75 129 0.0 9.0 0.00 0.00 0.00 49 1011.3
20191015194043 75 226 2.0 9.0 0.00 0.00 0.00 48 1011.3
20191015193542 75 168 4.0 9.0 0.00 0.00 0.00 48 1011.4
20191015193042 75 221 2.0 9.0 0.00 0.00 0.00 47 1011.6
20191015192542 75 186 1.0 9.0 0.00 0.00 0.00 47 1011.7
20191015192042 75 256 0.0 9.0 0.00 0.00 0.00 46 1011.9
20191015191542 75 309 2.0 9.0 0.00 0.00 0.00 47 1012.1
20191015191042 76 293 2.0 11.0 0.00 0.00 0.00 46 1012.3
20191015190542 75 233 2.0 11.0 0.00 0.00 0.00 46 1012.3
20191015190112 75 211 2.0 13.0 0.00 0.00 0.00 45 1012.4
20191015185542 75 172 0.0 14.0 0.00 0.00 0.00 44 1012.5
20191015185042 75 131 9.0 18.0 0.00 0.00 0.00 43 1012.6
20191015184542 75 143 8.0 18.0 0.00 0.00 0.00 43 1012.6
20191015184042 75 148 5.0 11.0 0.00 0.00 0.00 43 1012.7
20191015183542 75 146 4.0 12.0 0.00 0.00 0.00 43 1012.8
20191015183042 76 112 2.0 12.0 0.00 0.00 0.00 41 1012.9
20191015182542 76 133 1.0 8.0 0.00 0.00 0.00 40 1012.9
20191015182042 75 239 4.0 11.0 0.00 0.00 0.00 42 1013.0
20191015181542 74 146 6.0 11.0 0.00 0.00 0.00 41 1013.2
20191015181042 75 156 8.0 11.0 0.00 0.00 0.00 40 1013.3
20191015180542 75 165 10.0 10.0 0.00 0.00 0.00 41 1013.5
20191015180112 75 184 3.0 9.0 0.00 0.00 0.00 41 1013.6
20191015175542 74 162 2.0 10.0 0.00 0.00 0.00 41 1013.7
20191015175042 74 203 7.0 10.0 0.00 0.00 0.00 41 1013.9
20191015174542 74 155 5.0 9.0 0.00 0.00 0.00 43 1013.9
20191015174042 73 158 0.0 9.0 0.00 0.00 0.00 43 1014.0
20191015173542 72 153 3.0 11.0 0.00 0.00 0.00 44 1014.1
20191015173042 72 188 3.0 11.0 0.00 0.00 0.00 44 1014.3
20191015172542 72 177 5.0 10.0 0.00 0.00 0.00 44 1014.3
20191015172042 72 122 6.0 10.0 0.00 0.00 0.00 44 1014.5
20191015171542 71 143 9.0 13.0 0.00 0.00 0.00 45 1014.6
20191015171042 71 165 3.0 13.0 0.00 0.00 0.00 45 1014.6
20191015170542 71 187 5.0 11.0 0.00 0.00 0.00 46 1014.8
20191015170113 71 226 5.0 9.0 0.00 0.00 0.00 46 1014.8
20191015165542 70 120 3.0 9.0 0.00 0.00 0.00 46 1014.9